Location: Julian California
(33.0790°N, 116.6010°W)
Time: 20:14:46
(UTC-08:00)

Daily predictions for brighter satellites

Satellite Brightness Start Highest point End
(mag) Time Altitude Azimuth Time Altitude Azimuth Time Altitude Azimuth
Cosmos 1727 Rocket 4.4 16:56:35 10° N 17:02:27 42° E 17:08:14 10° SSE
Cosmos 1300 Rocket 4.0 17:00:38 10° N 17:04:47 40° E 17:08:53 10° SSE
Cosmos 1356 Rocket 3.7 17:02:06 10° SSW 17:06:08 74° W 17:10:17 10° N
Cosmos 540 Rocket 3.4 17:01:45 10° NNW 17:06:51 70° ENE 17:11:55 10° SSE
Meteor 1-18 Rocket 4.2 17:02:12 10° S 17:07:42 69° E 17:13:13 10° NNE
Cosmos 1674 Rocket 3.6 17:09:28 10° S 17:13:47 63° E 17:18:10 10° NNE
AQUARIUS 4.2 17:09:27 10° SSE 17:13:51 62° ENE 17:18:17 10° N
Cosmos 1339 Rocket 4.4 17:09:03 10° N 17:15:07 70° E 17:21:08 10° SSE
Cosmos 2151 Rocket 3.6 17:10:56 10° N 17:15:26 69° E 17:19:52 10° SSE
Shenzhou-11 Module 1.9 17:16:00 10° WSW 17:18:53 73° NNW 17:21:30 12° NE
Okean 1 3.4 17:16:30 10° S 17:20:30 86° W 17:24:33 10° N
SEDSat Delta rocket 4.1 17:13:59 10° W 17:20:43 78° S 17:26:54 10° E
BREEZE-M R/B 3.3 17:23:33 10° NW 17:27:41 35° NNE 17:31:08 10° E
Delta 2 Rocket 3.3 17:24:54 10° W 17:28:33 59° N 17:31:52 15° ENE
Okean-O 4.2 17:26:10 10° S 17:30:18 40° W 17:34:28 10° NNW
CZ-4 R/B 1.9 17:26:51 10° SE 17:30:45 39° ENE 17:34:40 10° N
Cosmos 2322 3.8 17:25:26 10° S 17:30:55 55° ESE 17:36:26 10° NNE
Ariane Rocket 3.7 17:29:54 10° SE 17:34:16 30° ENE 17:38:38 10° N
GPS 2-04 Rocket1 2.9 17:32:44 10° WNW 17:36:54 77° SSW 17:41:02 11° ESE
Lacrosse 5 rocket 1.9 17:32:41 10° SW 17:37:17 67° NW 17:41:37 12° NNE
SL-16 R/B 3.9 17:33:17 10° SW 17:38:14 31° WNW 17:43:13 10° N
Cosmos 2237 4.2 17:36:35 10° SSW 17:42:15 83° ESE 17:47:56 10° NNE
Meteor 1-19 Rocket 4.1 17:37:37 10° S 17:43:04 80° E 17:48:36 10° N
DELTA 2 R/B (1) 4.0 17:38:16 10° WNW 17:43:47 66° SSW 17:49:17 10° SE
SL-23 DEB 4.2 17:38:12 10° SW 17:44:32 88° NW 17:47:17 19° NE
Cosmos 968 Rocket 3.8 17:39:23 10° SSW 17:44:35 69° WNW 17:49:50 10° NNE
Meteor 2-9 Rocket 4.4 17:44:07 10° N 17:49:34 47° ENE 17:54:51 10° SSE
SMAP 4.4 17:48:03 10° S 17:52:28 43° W 17:56:54 10° NNW
Cosmos 1666 3.7 17:49:01 10° NNW 17:52:45 49° W 17:56:28 10° SSW
COSMO-SKYMED 1 2.5 17:49:22 10° NNE 17:53:42 87° WNW 17:58:02 10° SSW
YAOGAN 1 2.5 17:52:50 10° SSE 17:57:04 57° ENE 18:01:18 10° N
Cosmos 1975 Rocket 3.2 17:52:54 10° SSE 17:57:08 49° E 18:00:22 16° NNE
Meteor 1-13 Rocket 4.1 17:52:02 10° S 17:57:29 69° E 18:02:58 10° NNE
Cosmos 1821 Rocket 4.0 17:56:02 10° S 18:02:22 84° E 18:08:47 10° N
EPKM 3.6 18:01:15 10° SW 18:03:08 21° SSE 18:04:17 18° SE
Cosmos 1743 3.6 18:01:37 10° NNW 18:05:19 50° W 18:09:00 10° S
Aurora 2 Rocket 4.5 18:00:31 10° SW 18:05:52 27° S 18:08:41 16° SE
H-2A R/B 2.7 18:05:55 10° S 18:09:46 85° WSW 18:13:41 10° NNW
Cosmos 1535 Rocket 4.4 18:04:57 10° S 18:11:02 72° E 18:17:13 10° N
BREEZE M DEB (TANK) 4.0 18:08:28 10° NW 18:11:58 53° NE 18:23:39 10° ESE
Cosmos 2219 Rocket 2.3 18:07:21 10° S 18:12:51 55° ESE 18:15:29 30° NE
Timation 1 Rocket 4.2 18:07:56 10° NNW 18:13:54 71° ENE 18:19:49 10° SSE
Cosmos 1844 Rocket 2.9 18:10:09 10° N 18:15:32 43° ENE 18:18:50 22° SE
CZ-2C R/B 3.7 18:13:12 25° NNE 18:15:57 63° ESE 18:20:38 10° S
Okean 1 Rocket 3.9 18:15:21 10° NNW 18:19:36 52° W 18:23:49 10° S
COSMOS 2428 2.6 18:15:03 10° SSW 18:20:46 82° ESE 18:24:10 26° NNE
Cosmos 2263 Rocket 4.3 18:18:54 10° NW 18:23:38 28° WSW 18:28:19 10° SSW
Meteor 2-4 Rocket 4.1 18:18:21 10° SSW 18:24:01 65° W 18:29:34 10° N
ATLAS 3B R/B 3.8 18:21:22 10° SSE 18:26:18 25° ESE 18:26:18 25° ESE
ISS -1.3 18:26:53 10° WNW 18:29:28 22° SW 18:32:03 10° S
DNEPR-1 R/B 4.2 18:24:38 10° SW 18:29:31 72° WNW 18:32:36 28° NNE
GPS 2-05 Rocket1 3.8 18:29:58 10° W 18:32:19 40° WSW 18:32:19 40° WSW
USA 238 DEB 3.8 18:28:25 10° S 18:34:53 51° ESE 18:36:05 46° E
USA 238 3.8 18:28:31 10° S 18:34:59 51° ESE 18:36:10 46° E
FengYun 1-2 T 4.1 18:29:36 10° SSE 18:35:06 88° ENE 18:40:41 10° NNW
Envisat 2.8 18:30:41 10° SSE 18:35:41 67° ENE 18:40:44 10° N
Cosmos 2123 Rocket 3.9 18:31:37 10° N 18:37:57 74° E 18:44:14 10° S
Meteor 1-23 Rocket 4.2 18:35:08 10° S 18:40:56 87° E 18:44:00 30° N
NOSS 3-2 (A) 4.3 18:36:50 10° S 18:40:12 28° SE 18:40:12 28° SE
Cosmos 2360 Rocket 4.3 18:38:21 10° WSW 18:42:37 22° WNW 18:46:54 10° N
Cosmos 2333 Rocket 2.2 18:40:04 10° SSW 18:45:44 82° WNW 18:47:24 48° N
CZ-3B Rocket 4.3 18:42:50 10° SW 18:46:38 23° SSE 18:50:12 19° SE
MOS 1 4.4 18:57:38 10° S 19:03:18 75° WSW 19:09:01 10° NNW
Cosmos 2237 Rocket 3.0 19:00:14 10° S 19:03:43 39° S 19:03:43 39° S
SEDSat Delta rocket 4.1 19:00:55 10° W 19:07:12 56° SSW 19:07:24 56° S
Cosmos 1844 4.2 19:05:11 10° NNW 19:09:30 53° NW 19:09:30 53° NW
Lacrosse 5 rocket 4.3 19:15:50 10° NW 19:17:17 11° NNW 19:17:19 11° NNW
Cosmos 2219 Rocket 4.5 19:53:24 10° W 19:57:07 18° WNW 19:57:16 18° NW
ATLAS 3B R/B 4.4 20:10:28 10° SW 20:13:38 27° WSW 20:13:38 27° WSW
